MDT,Max TemperatureF,Mean TemperatureF,Min TemperatureF,Max Dew PointF,MeanDew PointF,Min DewpointF,Max Humidity, Mean Humidity, Min Humidity, Max Sea Level PressureIn, Mean Sea Level PressureIn, Min Sea Level PressureIn, Max VisibilityMiles, Mean VisibilityMiles, Min VisibilityMiles, Max Wind SpeedMPH, Mean Wind SpeedMPH, Max Gust SpeedMPH,PrecipitationIn, CloudCover, Events, WindDirDegrees
2012-8-1,82,63,44,52,39,32,81,43,16,30.35,30.30,30.23,10,10,10,16,5,23,0.00,1,Rain,310
2012-8-2,80,58,35,36,29,21,87,39,12,30.29,30.23,30.15,10,10,10,22,7,29,0.00,0,,296
2012-8-3,73,57,41,34,30,25,70,38,16,30.22,30.16,30.13,10,10,10,24,8,31,0.00,0,,300
2012-8-4,77,56,35,37,32,25,87,44,15,30.36,30.31,30.22,10,10,10,12,3,,0.00,0,,323
2012-8-5,84,60,37,41,32,23,87,43,11,30.40,30.37,30.32,10,10,10,13,6,24,0.00,0,,302
2012-8-6,82,66,51,43,35,28,55,32,14,30.45,30.41,30.37,10,10,10,17,6,23,0.00,1,,305
2012-8-7,84,63,42,41,34,27,76,42,13,30.47,30.43,30.38,10,10,10,21,6,28,0.00,0,,311
2012-8-8,87,64,41,37,32,25,76,38,11,30.48,30.41,30.33,10,10,10,9,5,,0.00,0,,312
2012-8-9,82,66,51,46,40,32,59,40,21,30.40,30.36,30.31,10,10,7,15,5,22,0.00,2,Rain-Thunderstorm,259
2012-8-10,82,62,42,54,44,32,100,55,16,30.36,30.28,30.18,10,10,5,23,4,32,0.00,2,Rain-Thunderstorm,265
2012-8-11,77,62,46,54,42,28,100,59,17,30.33,30.27,30.23,10,10,5,20,7,28,0.00,3,Rain,305
2012-8-12,80,58,37,41,34,28,87,44,15,30.40,30.34,30.26,10,10,10,8,4,,0.00,0,,330
2012-8-13,82,63,44,39,31,19,71,39,10,30.31,30.25,30.19,10,10,7,20,7,25,0.00,1,,299
2012-8-14,82,62,41,37,30,23,70,38,12,30.26,30.20,30.13,10,10,7,18,7,25,0.00,0,,293
2012-8-15,82,60,37,41,30,27,81,38,13,30.24,30.17,30.12,10,10,7,22,7,31,0.00,1,,293
2012-8-16,80,60,39,43,37,27,93,52,14,30.32,30.27,30.18,10,10,10,14,5,20,0.00,0,,304
2012-8-17,82,60,37,36,32,27,87,40,13,30.30,30.25,30.19,10,10,7,21,7,28,0.00,0,,297
2012-8-18,80,58,37,37,31,25,81,38,13,30.35,30.29,30.21,10,10,10,16,5,22,0.00,0,,289
2012-8-19,78,58,37,36,30,25,81,38,15,30.32,30.26,30.19,10,10,10,15,5,21,0.00,2,,313
2012-8-20,77,65,53,45,37,28,67,39,17,30.27,30.23,30.19,10,10,7,18,8,23,0.00,3,Rain-Thunderstorm,313
2012-8-21,80,60,41,41,36,28,87,45,15,30.30,30.24,30.14,10,10,10,21,6,26,0.00,1,,306
2012-8-22,78,62,46,41,35,28,71,38,16,30.21,30.17,30.13,10,10,10,12,5,18,0.00,3,,296
2012-8-23,78,58,37,36,31,27,81,43,15,30.21,30.16,30.09,10,10,7,18,7,26,0.00,0,,297
2012-8-24,78,60,41,36,28,19,70,33,12,30.18,30.12,30.09,10,10,10,20,9,30,0.00,0,,288
2012-8-25,78,54,30,28,21,9,75,38,7,30.22,30.18,30.13,10,10,10,18,6,29,0.00,0,,297
2012-8-26,78,56,35,37,30,23,75,39,16,30.31,30.26,30.21,10,10,10,13,6,29,0.00,2,,211
2012-8-27,82,63,44,46,38,34,76,41,20,30.40,30.35,30.30,10,10,10,17,4,23,0.00,3,Rain,227
2012-8-28,86,64,41,41,35,30,81,41,14,30.43,30.34,30.23,10,10,10,12,5,18,0.00,3,,259
2012-8-29,84,63,42,39,32,23,81,37,12,30.27,30.22,30.16,10,10,10,21,6,32,0.00,1,,286
2012-8-30,71,60,50,41,34,27,71,38,23,30.27,30.23,30.19,10,10,7,14,5,18,0.00,5,Rain,295
2012-8-31,71,58,44,52,45,37,93,66,31,30.27,30.24,30.21,10,10,7,21,5,31,0.00,4,Rain-Thunderstorm,19